Location: Hilde
(52.9479°N, 6.4449°E)
Time: 13:33:33
(UTC+00:00)

Meteor 2-9 Rocket - Pass Details

Date: 15 May 2026
Orbit: 790 x 893 km, 81.3° (Epoch: 11 June)

Event Time Altitude Azimuth Distance (km) Brightness Sun altitude
Rises 22:30:40 0° 346° (NNW) 3,319 9.1 -16.8°
Reaches altitude 10° 22:33:02 10° 346° (NNW) 2,393 7.9 -16.9°
Maximum altitude 22:38:27 88° 261° (W) 824 4.1 -17.1°
Enters shadow 22:41:21 29° 170° (S) 1,466 4.9 -17.2°
